Skip Page Navigation
NASA JPL Caltech
NASA Logo - Jet Propulsion Laboratory + View the NASA Portal
+ Center for Near-Earth Object Studies
JPL Home Earth Solar System Stars & Galaxies Technology
JPL Solar System Dynamics
BODIES ORBITS EPHEMERIDES TOOLS PHYSICAL DATA DISCOVERY FAQ SITE MAP
JPL Small-Body Database Browser
Search: [ help ]  
46164 (2001 FZ79)
Classification: Main-belt Asteroid          SPK-ID: 2046164
Ephemeris | Orbit Diagram | Orbital Elements | Mission Design | Physical Parameters | Discovery Circumstances ]

[ show orbit diagram ]
Orbital Elements at Epoch 2459396.5 (2021-Jul-01.0) TDB
Reference: JPL 25 (heliocentric ecliptic J2000)
 Element Value Uncertainty (1-sigma)   Units 
e .05214573555948705 4.8511e-08  
a 2.666214538756884 1.2753e-08 au
q 2.527182820474007 1.3091e-07 au
i 8.626098322583072 5.1009e-06 deg
node 319.8544885636529 2.6918e-05 deg
peri 172.2405631324634 5.1985e-05 deg
M 293.6216190585029 4.4708e-05 deg
tp 2459689.700846417009
(2022-Apr-20.20084642)
0.00019808 TDB
period 1590.160880892112
4.35
1.1409e-05
3.124e-08
d
yr
n .2263921873100242 1.6243e-09 deg/d
Q 2.80524625703976 1.3418e-08 au
  Orbit Determination Parameters
   # obs. used (total)      1022  
   data-arc span      9162 days (25.08 yr)  
   first obs. used      1996-01-12  
   last obs. used      2021-02-11  
   planetary ephem.      DE441  
   SB-pert. ephem.      SB441-N16  
   condition code      0  
   norm. resid. RMS      .5396  
   source      ORB  
   producer      Otto Matic  
   solution date      2021-Jul-08 21:22:19  

Additional Information
 Earth MOID = 1.54215 au 
 Jupiter MOID = 2.21807 au 
 T_jup = 3.365 
[ show covariance matrix ]

Ephemeris | Orbit Diagram | Orbital Elements | Mission Design | Physical Parameters | Discovery Circumstances ]

Physical Parameter Table
Parameter Symbol Value Units Sigma Reference Notes
absolute magnitude H 14.82   n/a E2021B10  
diameter diameter 3.777 km 0.444 urn:nasa:pds:neowise_diameters_albedos::2.0[mainbelt] (http://adsabs.harvard.edu/abs/2012ApJ...759L...8M)  
geometric albedo albedo 0.163   0.033 urn:nasa:pds:neowise_diameters_albedos::2.0[mainbelt] (http://adsabs.harvard.edu/abs/2012ApJ...759L...8M)  

46164 (2001 FZ79)          Discovered 2001-Mar-21 by LINEAR at Socorro
Reference: 20020822/Numbers.arcLast Updated: 2004-04-19

Alternate Designations
 2001 FZ79 = 1999 XK198 
Ephemeris | Orbit Diagram | Orbital Elements | Mission Design | Physical Parameters | Discovery Circumstances ]
ABOUT SSD CREDITS/AWARDS PRIVACY/COPYRIGHT GLOSSARY LINKS
FirstGov 2021-Jul-23 20:28 UT
(server date/time)  
NASA Home Page
Site Manager:   Ryan S. Park
Webmaster  Alan B. Chamberlin